NOSS 2-2 (E) - Orbit

View from above orbital plane
View from above orbital plane
View from above satellite
View from above satellite

Ground track
Ground track

The orbit data is extracted from the following two-line orbital elements,

1 21809U 91076E   13151.65975399 0.00000150  00000-0  85579-4 0    04
2 21809  63.3750 305.1312 0622000   8.6050 351.3950 13.40731702    04
Epoch (UTC): 31 May 2013 15:50:02
Eccentricity: 0.0622000
inclination: 63.3750°
perigee height: 641 km
apogee height: 1572 km
right ascension of ascending node: 305.1312°
argument of perigee: 8.6050°
revolutions per day: 13.40731702
mean anomaly at epoch: 351.3950°
orbit number at epoch: 0

The dashed part of the orbit path shows where the satellite is in the earth's shadow,  

Developed and maintained by Chris Peat, Heavens-Above GmbH. Please read the updated FAQ before sending e-mail. Imprint. DLR